Location: *
(44.1392°N, 4.8079°E)
Time: 13:59:27
(UTC+00:00)

Lacrosse 5 rocket - Pass Details

Date: 17 October 2021
Orbit: 459 x 633 km, 57.0° (Epoch: 04 December)

Event Time Altitude Azimuth Distance (km) Brightness Sun altitude
Exits shadow 03:56:28 33° 178° (S) 949 2.4 -22.5°
Maximum altitude 03:57:48 46° 131° (SE) 776 2.3 -22.3°
Drops below altitude 10° 04:02:00 10° 58° (ENE) 1,928 5.0 -21.5°
Sets 04:04:24 0° 52° (NE) 2,860 6.0 -21.1°
